Time,TemperatureF,DewpointF,PressureIn,WindDirection,WindDirectionDegrees,WindSpeedMPH,WindSpeedGustMPH,Humidity,HourlyPrecipIn,Conditions,Clouds,dailyrainin,SoftwareType,DateUTC
2013-04-02 00:07:00,39.0,18.5,24.17,South,180,17.0,21.0,43,0.00,,,0.00,meteohub,2013-04-02 06:07:00,
2013-04-02 00:12:00,38.8,17.1,24.17,South,180,17.0,19.0,41,0.00,,,0.00,meteohub,2013-04-02 06:12:00,
2013-04-02 00:17:00,38.8,17.1,24.17,South,180,18.0,20.0,41,0.00,,,0.00,meteohub,2013-04-02 06:17:00,
2013-04-02 00:22:00,39.2,16.9,24.17,South,180,18.0,20.0,40,0.00,,,0.00,meteohub,2013-04-02 06:22:00,
2013-04-02 00:27:00,38.8,17.8,24.17,South,180,17.0,22.0,42,0.00,,,0.00,meteohub,2013-04-02 06:27:00,
2013-04-02 00:32:00,38.5,17.4,24.18,South,180,17.0,22.0,42,0.00,,,0.00,meteohub,2013-04-02 06:32:00,
2013-04-02 00:37:00,38.5,17.4,24.17,South,180,17.0,22.0,42,0.00,,,0.00,meteohub,2013-04-02 06:37:00,
2013-04-02 00:42:00,38.7,17.1,24.17,South,180,17.0,20.0,41,0.00,,,0.00,meteohub,2013-04-02 06:42:00,
2013-04-02 00:47:00,38.7,17.1,24.17,South,180,18.0,20.0,41,0.00,,,0.00,meteohub,2013-04-02 06:47:00,
2013-04-02 00:52:00,38.5,16.9,24.17,South,180,18.0,21.0,41,0.00,,,0.00,meteohub,2013-04-02 06:52:00,
2013-04-02 00:57:00,38.3,16.7,24.17,South,180,20.0,21.0,41,0.00,,,0.00,meteohub,2013-04-02 06:57:00,
2013-04-02 01:02:00,38.1,17.1,24.17,South,180,20.0,21.0,42,0.00,,,0.00,meteohub,2013-04-02 07:02:00,
2013-04-02 01:07:00,38.1,17.1,24.18,South,180,20.0,20.0,42,0.00,,,0.00,meteohub,2013-04-02 07:07:00,
2013-04-02 01:12:00,37.6,17.1,24.18,South,180,17.0,20.0,43,0.00,,,0.00,meteohub,2013-04-02 07:12:00,
2013-04-02 01:17:00,37.8,17.2,24.18,South,180,18.0,20.0,43,0.00,,,0.00,meteohub,2013-04-02 07:17:00,
2013-04-02 01:22:00,37.6,17.6,24.18,South,180,16.0,20.0,44,0.00,,,0.00,meteohub,2013-04-02 07:22:00,
2013-04-02 01:27:00,37.6,17.1,24.18,South,180,19.0,19.0,43,0.00,,,0.00,meteohub,2013-04-02 07:27:00,
2013-04-02 01:32:00,37.8,17.8,24.18,South,180,17.0,19.0,44,0.00,,,0.00,meteohub,2013-04-02 07:32:00,
2013-04-02 01:37:00,37.4,17.4,24.18,South,180,18.0,19.0,44,0.00,,,0.00,meteohub,2013-04-02 07:37:00,
2013-04-02 01:42:00,37.6,17.1,24.18,South,180,20.0,20.0,43,0.00,,,0.00,meteohub,2013-04-02 07:42:00,
2013-04-02 01:47:00,37.2,17.2,24.18,South,180,17.0,20.0,44,0.00,,,0.00,meteohub,2013-04-02 07:47:00,
2013-04-02 01:52:00,37.2,17.2,24.18,South,180,17.0,20.0,44,0.00,,,0.00,meteohub,2013-04-02 07:52:00,
2013-04-02 01:57:00,37.0,17.1,24.18,South,180,17.0,20.0,44,0.00,,,0.00,meteohub,2013-04-02 07:57:00,
2013-04-02 02:07:00,37.0,17.6,24.18,South,180,17.0,19.0,45,0.00,,,0.00,meteohub,2013-04-02 08:07:00,
2013-04-02 02:12:00,36.5,17.6,24.18,South,180,18.0,19.0,46,0.00,,,0.00,meteohub,2013-04-02 08:12:00,
2013-04-02 02:17:00,36.7,17.8,24.18,South,180,20.0,20.0,46,0.00,,,0.00,meteohub,2013-04-02 08:17:00,
2013-04-02 02:27:00,36.3,18.0,24.18,South,180,21.0,21.0,47,0.00,,,0.00,meteohub,2013-04-02 08:27:00,
2013-04-02 02:37:00,36.1,17.8,24.18,South,180,22.0,22.0,47,0.00,,,0.00,meteohub,2013-04-02 08:37:00,
2013-04-02 02:47:00,35.6,17.8,24.18,South,180,20.0,22.0,48,0.00,,,0.00,meteohub,2013-04-02 08:47:00,
2013-04-02 02:52:00,35.4,18.1,24.18,South,180,19.0,22.0,49,0.00,,,0.00,meteohub,2013-04-02 08:52:00,
2013-04-02 03:02:00,35.4,18.1,24.17,South,180,21.0,21.0,49,0.00,,,0.00,meteohub,2013-04-02 09:02:00,
2013-04-02 03:12:00,35.2,18.0,24.17,South,180,21.0,22.0,49,0.00,,,0.00,meteohub,2013-04-02 09:12:00,
2013-04-02 03:17:00,35.2,18.0,24.18,South,180,21.0,22.0,49,0.00,,,0.00,meteohub,2013-04-02 09:17:00,
2013-04-02 03:22:00,35.1,17.8,24.18,South,180,21.0,23.0,49,0.00,,,0.00,meteohub,2013-04-02 09:22:00,
2013-04-02 03:27:00,35.1,18.3,24.18,South,180,17.0,23.0,50,0.00,,,0.00,meteohub,2013-04-02 09:27:00,
2013-04-02 03:32:00,35.2,18.0,24.17,South,180,19.0,21.0,49,0.00,,,0.00,meteohub,2013-04-02 09:32:00,
2013-04-02 03:42:00,35.1,18.3,24.17,South,180,19.0,21.0,50,0.00,,,0.00,meteohub,2013-04-02 09:42:00,
2013-04-02 03:47:00,34.9,18.1,24.17,South,180,19.0,21.0,50,0.00,,,0.00,meteohub,2013-04-02 09:47:00,
2013-04-02 03:52:00,35.1,18.3,24.17,South,180,21.0,21.0,50,0.00,,,0.00,meteohub,2013-04-02 09:52:00,
2013-04-02 03:57:00,34.9,18.1,24.17,South,180,19.0,21.0,50,0.00,,,0.00,meteohub,2013-04-02 09:57:00,
2013-04-02 04:07:00,34.9,18.1,24.18,South,180,19.0,21.0,50,0.00,,,0.00,meteohub,2013-04-02 10:07:00,
2013-04-02 04:17:00,34.7,18.5,24.17,South,180,21.0,23.0,51,0.00,,,0.00,meteohub,2013-04-02 10:17:00,
2013-04-02 04:22:00,34.5,18.3,24.17,South,180,17.0,23.0,51,0.00,,,0.00,meteohub,2013-04-02 10:22:00,
2013-04-02 04:32:00,34.2,18.3,24.17,South,180,22.0,22.0,52,0.00,,,0.00,meteohub,2013-04-02 10:32:00,
2013-04-02 04:42:00,34.2,18.9,24.17,South,180,21.0,22.0,53,0.00,,,0.00,meteohub,2013-04-02 10:42:00,
2013-04-02 04:47:00,34.3,18.5,24.17,South,180,20.0,22.0,52,0.00,,,0.00,meteohub,2013-04-02 10:47:00,
2013-04-02 04:52:00,34.5,18.3,24.17,South,180,21.0,22.0,51,0.00,,,0.00,meteohub,2013-04-02 10:52:00,
2013-04-02 04:57:00,34.5,18.3,24.17,South,180,21.0,23.0,51,0.00,,,0.00,meteohub,2013-04-02 10:57:00,
2013-04-02 05:02:00,34.3,18.1,24.17,South,180,20.0,23.0,51,0.00,,,0.00,meteohub,2013-04-02 11:02:00,
2013-04-02 05:07:00,34.3,18.1,24.17,South,180,20.0,23.0,51,0.00,,,0.00,meteohub,2013-04-02 11:07:00,
2013-04-02 05:17:00,34.2,18.9,24.18,South,180,19.0,23.0,53,0.00,,,0.00,meteohub,2013-04-02 11:17:00,
2013-04-02 05:27:00,34.0,18.7,24.17,South,180,23.0,23.0,53,0.00,,,0.00,meteohub,2013-04-02 11:27:00,
2013-04-02 05:32:00,33.8,18.5,24.17,South,180,21.0,24.0,53,0.00,,,0.00,meteohub,2013-04-02 11:32:00,
2013-04-02 05:37:00,33.8,18.5,24.17,South,180,20.0,24.0,53,0.00,,,0.00,meteohub,2013-04-02 11:37:00,
2013-04-02 05:42:00,33.4,18.5,24.17,South,180,21.0,23.0,54,0.00,,,0.00,meteohub,2013-04-02 11:42:00,
2013-04-02 05:52:00,33.4,18.5,24.17,South,180,22.0,23.0,54,0.00,,,0.00,meteohub,2013-04-02 11:52:00,
2013-04-02 05:57:00,33.4,18.5,24.17,South,180,19.0,23.0,54,0.00,,,0.00,meteohub,2013-04-02 11:57:00,
2013-04-02 06:07:00,33.3,18.9,24.17,South,180,20.0,23.0,55,0.00,,,0.00,meteohub,2013-04-02 12:07:00,
2013-04-02 06:12:00,33.3,18.9,24.17,South,180,23.0,23.0,55,0.00,,,0.00,meteohub,2013-04-02 12:12:00,
2013-04-02 06:22:00,33.3,18.5,24.17,South,180,18.0,23.0,54,0.00,,,0.00,meteohub,2013-04-02 12:22:00,
2013-04-02 06:27:00,33.6,18.3,24.17,South,180,20.0,23.0,53,0.00,,,0.00,meteohub,2013-04-02 12:27:00,
2013-04-02 06:32:00,33.6,18.3,24.17,South,180,20.0,22.0,53,0.00,,,0.00,meteohub,2013-04-02 12:32:00,
2013-04-02 06:42:00,33.6,18.3,24.17,South,180,19.0,21.0,53,0.00,,,0.00,meteohub,2013-04-02 12:42:00,
2013-04-02 06:47:00,33.3,18.5,24.17,South,180,21.0,21.0,54,0.00,,,0.00,meteohub,2013-04-02 12:47:00,
2013-04-02 06:57:00,33.3,18.5,24.17,South,180,20.0,21.0,54,0.00,,,0.00,meteohub,2013-04-02 12:57:00,
2013-04-02 07:02:00,33.4,18.5,24.17,South,180,21.0,21.0,54,0.00,,,0.00,meteohub,2013-04-02 13:02:00,
2013-04-02 07:07:00,33.4,18.5,24.17,South,180,21.0,21.0,54,0.00,,,0.00,meteohub,2013-04-02 13:07:00,
2013-04-02 07:12:00,33.4,18.5,24.17,South,180,21.0,21.0,54,0.00,,,0.00,meteohub,2013-04-02 13:12:00,
2013-04-02 07:17:00,33.6,18.7,24.17,South,180,19.0,21.0,54,0.00,,,0.00,meteohub,2013-04-02 13:17:00,
2013-04-02 07:27:00,34.5,18.7,24.17,South,180,21.0,21.0,52,0.00,,,0.00,meteohub,2013-04-02 13:27:00,
2013-04-02 07:32:00,34.5,18.7,24.17,South,180,20.0,21.0,52,0.00,,,0.00,meteohub,2013-04-02 13:32:00,
2013-04-02 07:37:00,34.5,19.2,24.17,SSW,203,18.0,21.0,53,0.00,,,0.00,meteohub,2013-04-02 13:37:00,
2013-04-02 07:47:00,34.9,19.0,24.17,South,180,21.0,22.0,52,0.00,,,0.00,meteohub,2013-04-02 13:47:00,
2013-04-02 07:52:00,35.2,19.4,24.18,South,180,20.0,23.0,52,0.00,,,0.00,meteohub,2013-04-02 13:52:00,
2013-04-02 07:57:00,35.6,19.2,24.18,South,180,19.0,23.0,51,0.00,,,0.00,meteohub,2013-04-02 13:57:00,
2013-04-02 08:02:00,35.8,19.0,24.17,South,180,21.0,23.0,50,0.00,,,0.00,meteohub,2013-04-02 14:02:00,
2013-04-02 08:07:00,35.8,19.0,24.18,South,180,21.0,21.0,50,0.00,,,0.00,meteohub,2013-04-02 14:07:00,
2013-04-02 08:12:00,36.0,19.6,24.18,South,180,22.0,22.0,51,0.00,,,0.00,meteohub,2013-04-02 14:12:00,
2013-04-02 08:17:00,36.3,19.4,24.18,South,180,19.0,22.0,50,0.00,,,0.00,meteohub,2013-04-02 14:17:00,
2013-04-02 08:22:00,36.7,19.4,24.18,South,180,19.0,22.0,49,0.00,,,0.00,meteohub,2013-04-02 14:22:00,
2013-04-02 08:27:00,37.2,19.4,24.18,South,180,19.0,22.0,48,0.00,,,0.00,meteohub,2013-04-02 14:27:00,
2013-04-02 08:37:00,38.3,19.8,24.18,South,180,18.0,20.0,47,0.00,,,0.00,meteohub,2013-04-02 14:37:00,
2013-04-02 08:47:00,38.3,19.8,24.17,South,180,19.0,19.0,47,0.00,,,0.00,meteohub,2013-04-02 14:47:00,
2013-04-02 08:52:00,38.7,19.6,24.17,South,180,18.0,19.0,46,0.00,,,0.00,meteohub,2013-04-02 14:52:00,
2013-04-02 09:02:00,39.2,20.1,24.17,South,180,17.0,19.0,46,0.00,,,0.00,meteohub,2013-04-02 15:02:00,
2013-04-02 09:12:00,40.3,20.1,24.18,South,180,17.0,18.0,44,0.00,,,0.00,meteohub,2013-04-02 15:12:00,
2013-04-02 09:17:00,40.6,21.0,24.17,South,180,16.0,17.0,45,0.00,,,0.00,meteohub,2013-04-02 15:17:00,
2013-04-02 09:22:00,40.6,20.5,24.17,South,180,16.0,17.0,44,0.00,,,0.00,meteohub,2013-04-02 15:22:00,
2013-04-02 09:27:00,41.0,20.3,24.17,South,180,15.0,17.0,43,0.00,,,0.00,meteohub,2013-04-02 15:27:00,
2013-04-02 09:32:00,41.0,20.8,24.17,South,180,17.0,17.0,44,0.00,,,0.00,meteohub,2013-04-02 15:32:00,
2013-04-02 09:37:00,41.0,20.3,24.17,South,180,15.0,17.0,43,0.00,,,0.00,meteohub,2013-04-02 15:37:00,
2013-04-02 09:42:00,41.2,20.3,24.17,South,180,16.0,17.0,43,0.00,,,0.00,meteohub,2013-04-02 15:42:00,
2013-04-02 09:52:00,41.7,20.8,24.17,South,180,16.0,17.0,43,0.00,,,0.00,meteohub,2013-04-02 15:52:00,
2013-04-02 09:57:00,42.3,21.4,24.18,South,180,15.0,17.0,43,0.00,,,0.00,meteohub,2013-04-02 15:57:00,
2013-04-02 10:02:00,42.4,21.0,24.17,South,180,15.0,17.0,42,0.00,,,0.00,meteohub,2013-04-02 16:02:00,
2013-04-02 10:07:00,42.4,21.0,24.17,South,180,15.0,17.0,42,0.00,,,0.00,meteohub,2013-04-02 16:07:00,
2013-04-02 10:17:00,43.5,21.9,24.17,South,180,16.0,17.0,42,0.00,,,0.00,meteohub,2013-04-02 16:17:00,
2013-04-02 10:22:00,43.9,21.7,24.17,SE,135,15.0,17.0,41,0.00,,,0.00,meteohub,2013-04-02 16:22:00,
2013-04-02 10:32:00,44.4,22.1,24.17,South,180,13.0,16.0,41,0.00,,,0.00,meteohub,2013-04-02 16:32:00,
2013-04-02 10:37:00,44.8,22.5,24.17,South,180,14.0,15.0,41,0.00,,,0.00,meteohub,2013-04-02 16:37:00,
2013-04-02 10:47:00,45.5,23.7,24.17,South,180,13.0,17.0,42,0.00,,,0.00,meteohub,2013-04-02 16:47:00,
2013-04-02 10:52:00,45.3,23.0,24.17,South,180,15.0,17.0,41,0.00,,,0.00,meteohub,2013-04-02 16:52:00,
2013-04-02 10:57:00,45.5,22.6,24.17,South,180,12.0,16.0,40,0.00,,,0.00,meteohub,2013-04-02 16:57:00,
2013-04-02 11:02:00,45.9,21.7,24.17,South,180,11.0,16.0,38,0.00,,,0.00,meteohub,2013-04-02 17:02:00,
2013-04-02 11:07:00,45.9,21.7,24.17,South,180,11.0,15.0,38,0.00,,,0.00,meteohub,2013-04-02 17:07:00,
2013-04-02 11:12:00,47.7,23.4,24.17,South,180,13.0,13.0,38,0.00,,,0.00,meteohub,2013-04-02 17:12:00,
2013-04-02 11:17:00,48.2,22.5,24.17,South,180,13.0,14.0,36,0.00,,,0.00,meteohub,2013-04-02 17:17:00,
2013-04-02 11:22:00,48.2,22.5,24.17,South,180,13.0,14.0,36,0.00,,,0.00,meteohub,2013-04-02 17:22:00,
2013-04-02 11:27:00,48.7,24.3,24.17,South,180,10.0,14.0,38,0.00,,,0.00,meteohub,2013-04-02 17:27:00,
2013-04-02 11:32:00,49.8,22.6,24.17,SW,225,8.0,13.0,34,0.00,,,0.00,meteohub,2013-04-02 17:32:00,
2013-04-02 11:42:00,50.7,23.4,24.17,South,180,8.0,13.0,34,0.00,,,0.00,meteohub,2013-04-02 17:42:00,
2013-04-02 11:47:00,50.9,22.8,24.17,South,180,11.0,12.0,33,0.00,,,0.00,meteohub,2013-04-02 17:47:00,
2013-04-02 11:57:00,52.2,22.5,24.17,South,180,11.0,12.0,31,0.00,,,0.00,meteohub,2013-04-02 17:57:00,
2013-04-02 12:07:00,52.5,21.9,24.17,South,180,16.0,16.0,30,0.00,,,0.00,meteohub,2013-04-02 18:07:00,
2013-04-02 12:12:00,52.9,22.3,24.17,SE,135,20.0,20.0,30,0.00,,,0.00,meteohub,2013-04-02 18:12:00,
2013-04-02 12:22:00,54.5,22.1,24.17,North,0,13.0,21.0,28,0.00,,,0.00,meteohub,2013-04-02 18:22:00,
2013-04-02 12:32:00,54.1,20.8,24.17,NW,315,11.0,16.0,27,0.00,,,0.00,meteohub,2013-04-02 18:32:00,
2013-04-02 12:37:00,54.0,19.8,24.17,NW,315,14.0,17.0,26,0.00,,,0.00,meteohub,2013-04-02 18:37:00,
2013-04-02 12:47:00,54.5,22.1,24.16,West,270,17.0,20.0,28,0.00,,,0.00,meteohub,2013-04-02 18:47:00,
2013-04-02 12:57:00,53.8,20.7,24.16,NW,315,17.0,23.0,27,0.00,,,0.00,meteohub,2013-04-02 18:57:00,
2013-04-02 13:02:00,53.6,19.6,24.16,West,270,15.0,23.0,26,0.00,,,0.00,meteohub,2013-04-02 19:02:00,
2013-04-02 13:12:00,54.1,21.7,24.16,NW,315,17.0,22.0,28,0.00,,,0.00,meteohub,2013-04-02 19:12:00,
2013-04-02 13:17:00,54.1,19.9,24.16,NW,315,20.0,22.0,26,0.00,,,0.00,meteohub,2013-04-02 19:17:00,
2013-04-02 13:22:00,54.5,19.4,24.16,NW,315,20.0,22.0,25,0.00,,,0.00,meteohub,2013-04-02 19:22:00,
2013-04-02 13:27:00,54.5,19.4,24.16,NW,315,20.0,22.0,25,0.00,,,0.00,meteohub,2013-04-02 19:27:00,
2013-04-02 13:32:00,55.4,19.2,24.15,NW,315,17.0,22.0,24,0.00,,,0.00,meteohub,2013-04-02 19:32:00,
2013-04-02 13:42:00,54.9,21.6,24.15,West,270,13.0,22.0,27,0.00,,,0.00,meteohub,2013-04-02 19:42:00,
2013-04-02 13:52:00,56.3,19.0,24.15,WNW,293,17.0,23.0,23,0.00,,,0.00,meteohub,2013-04-02 19:52:00,
2013-04-02 13:57:00,56.1,20.8,24.15,West,270,16.0,23.0,25,0.00,,,0.00,meteohub,2013-04-02 19:57:00,
2013-04-02 14:02:00,55.4,21.0,24.15,West,270,13.0,23.0,26,0.00,,,0.00,meteohub,2013-04-02 20:02:00,
2013-04-02 14:12:00,55.9,21.6,24.15,NW,315,17.0,21.0,26,0.00,,,0.00,meteohub,2013-04-02 20:12:00,
2013-04-02 14:17:00,55.6,21.2,24.15,West,270,21.0,21.0,26,0.00,,,0.00,meteohub,2013-04-02 20:17:00,
2013-04-02 14:27:00,57.0,18.5,24.15,West,270,17.0,26.0,22,0.00,,,0.00,meteohub,2013-04-02 20:27:00,
2013-04-02 14:32:00,56.8,18.3,24.15,West,270,20.0,22.0,22,0.00,,,0.00,meteohub,2013-04-02 20:32:00,
2013-04-02 14:37:00,55.8,18.5,24.14,WNW,293,25.0,25.0,23,0.00,,,0.00,meteohub,2013-04-02 20:37:00,
2013-04-02 14:42:00,55.8,19.6,24.14,West,270,19.0,26.0,24,0.00,,,0.00,meteohub,2013-04-02 20:42:00,
2013-04-02 14:52:00,56.5,22.8,24.14,NW,315,23.0,36.0,27,0.00,,,0.00,meteohub,2013-04-02 20:52:00,
2013-04-02 14:57:00,55.8,19.6,24.14,West,270,26.0,36.0,24,0.00,,,0.00,meteohub,2013-04-02 20:57:00,
2013-04-02 15:02:00,54.9,20.7,24.14,NW,315,29.0,36.0,26,0.00,,,0.00,meteohub,2013-04-02 21:02:00,
2013-04-02 15:12:00,56.3,22.8,24.13,NW,315,25.0,29.0,27,0.00,,,0.00,meteohub,2013-04-02 21:12:00,
2013-04-02 15:22:00,57.0,20.5,24.13,NW,315,21.0,33.0,24,0.00,,,0.00,meteohub,2013-04-02 21:22:00,
2013-04-02 15:32:00,57.7,21.2,24.13,West,270,18.0,27.0,24,0.00,,,0.00,meteohub,2013-04-02 21:32:00,
2013-04-02 15:37:00,57.4,20.8,24.13,West,270,21.0,27.0,24,0.00,,,0.00,meteohub,2013-04-02 21:37:00,
2013-04-02 15:47:00,56.8,22.3,24.13,NW,315,20.0,25.0,26,0.00,,,0.00,meteohub,2013-04-02 21:47:00,
2013-04-02 15:52:00,57.7,22.1,24.13,NW,315,15.0,25.0,25,0.00,,,0.00,meteohub,2013-04-02 21:52:00,
2013-04-02 16:02:00,58.3,25.3,24.13,NW,315,18.0,25.0,28,0.00,,,0.00,meteohub,2013-04-02 22:02:00,
2013-04-02 16:12:00,57.2,23.5,24.13,WNW,293,17.0,27.0,27,0.00,,,0.00,meteohub,2013-04-02 22:12:00,
2013-04-02 16:17:00,57.0,23.4,24.13,West,270,19.0,27.0,27,0.00,,,0.00,meteohub,2013-04-02 22:17:00,
2013-04-02 16:22:00,57.9,22.3,24.12,NW,315,17.0,27.0,25,0.00,,,0.00,meteohub,2013-04-02 22:22:00,
2013-04-02 16:32:00,58.3,22.6,24.12,NW,315,21.0,25.0,25,0.00,,,0.00,meteohub,2013-04-02 22:32:00,
2013-04-02 16:37:00,59.0,19.0,24.12,NNW,338,22.0,24.0,21,0.00,,,0.00,meteohub,2013-04-02 22:37:00,
2013-04-02 16:47:00,58.3,20.7,24.12,West,270,18.0,27.0,23,0.00,,,0.00,meteohub,2013-04-02 22:47:00,
2013-04-02 16:52:00,58.8,21.0,24.12,West,270,18.0,27.0,23,0.00,,,0.00,meteohub,2013-04-02 22:52:00,
2013-04-02 17:02:00,58.1,18.3,24.12,NW,315,23.0,23.0,21,0.00,,,0.00,meteohub,2013-04-02 23:02:00,
2013-04-02 17:07:00,58.1,18.3,24.12,NW,315,23.0,23.0,21,0.00,,,0.00,meteohub,2013-04-02 23:07:00,
2013-04-02 17:12:00,58.6,21.0,24.12,West,270,20.0,23.0,23,0.00,,,0.00,meteohub,2013-04-02 23:12:00,
2013-04-02 17:17:00,57.9,20.3,24.12,West,270,17.0,23.0,23,0.00,,,0.00,meteohub,2013-04-02 23:17:00,
2013-04-02 17:22:00,58.8,22.1,24.12,West,270,17.0,25.0,24,0.00,,,0.00,meteohub,2013-04-02 23:22:00,
2013-04-02 17:32:00,58.5,20.8,24.12,West,270,21.0,24.0,23,0.00,,,0.00,meteohub,2013-04-02 23:32:00,
2013-04-02 17:42:00,57.7,21.2,24.12,West,270,23.0,24.0,24,0.00,,,0.00,meteohub,2013-04-02 23:42:00,
2013-04-02 17:47:00,57.4,19.9,24.12,West,270,22.0,26.0,23,0.00,,,0.00,meteohub,2013-04-02 23:47:00,
2013-04-02 17:52:00,57.7,21.2,24.11,West,270,23.0,26.0,24,0.00,,,0.00,meteohub,2013-04-02 23:52:00,
2013-04-02 18:02:00,57.7,23.0,24.12,West,270,17.0,24.0,26,0.00,,,0.00,meteohub,2013-04-03 00:02:00,
2013-04-02 18:07:00,57.7,23.0,24.11,West,270,17.0,24.0,26,0.00,,,0.00,meteohub,2013-04-03 00:07:00,
2013-04-02 18:17:00,56.7,23.0,24.11,West,270,25.0,28.0,27,0.00,,,0.00,meteohub,2013-04-03 00:17:00,
2013-04-02 18:22:00,56.7,23.9,24.11,West,270,17.0,28.0,28,0.00,,,0.00,meteohub,2013-04-03 00:22:00,
2013-04-02 18:27:00,56.3,23.5,24.11,WNW,293,23.0,28.0,28,0.00,,,0.00,meteohub,2013-04-03 00:27:00,
2013-04-02 18:37:00,56.5,22.8,24.11,NW,315,21.0,27.0,27,0.00,,,0.00,meteohub,2013-04-03 00:37:00,
2013-04-02 18:42:00,56.1,22.6,24.11,West,270,23.0,27.0,27,0.00,,,0.00,meteohub,2013-04-03 00:42:00,
2013-04-02 18:47:00,56.1,23.4,24.12,NW,315,19.0,27.0,28,0.00,,,0.00,meteohub,2013-04-03 00:47:00,
2013-04-02 18:52:00,55.6,23.9,24.12,WNW,293,24.0,25.0,29,0.00,,,0.00,meteohub,2013-04-03 00:52:00,
2013-04-02 18:57:00,55.2,23.5,24.12,NW,315,23.0,26.0,29,0.00,,,0.00,meteohub,2013-04-03 00:57:00,
2013-04-02 19:07:00,55.0,24.1,24.12,NW,315,21.0,25.0,30,0.00,,,0.00,meteohub,2013-04-03 01:07:00,
2013-04-02 19:12:00,53.8,24.6,24.12,West,270,20.0,25.0,32,0.00,,,0.00,meteohub,2013-04-03 01:12:00,
2013-04-02 19:22:00,53.2,24.8,24.12,NW,315,21.0,23.0,33,0.00,,,0.00,meteohub,2013-04-03 01:22:00,
2013-04-02 19:27:00,53.2,25.5,24.12,NW,315,21.0,23.0,34,0.00,,,0.00,meteohub,2013-04-03 01:27:00,
2013-04-02 19:37:00,52.3,24.8,24.12,West,270,17.0,23.0,34,0.00,,,0.00,meteohub,2013-04-03 01:37:00,
2013-04-02 19:42:00,52.2,24.6,24.12,NW,315,21.0,21.0,34,0.00,,,0.00,meteohub,2013-04-03 01:42:00,
2013-04-02 19:52:00,51.6,24.1,24.12,NW,315,15.0,25.0,34,0.00,,,0.00,meteohub,2013-04-03 01:52:00,
2013-04-02 19:57:00,51.1,23.7,24.12,NW,315,17.0,25.0,34,0.00,,,0.00,meteohub,2013-04-03 01:57:00,
2013-04-02 20:02:00,50.5,24.6,24.12,NW,315,15.0,25.0,36,0.00,,,0.00,meteohub,2013-04-03 02:02:00,
2013-04-02 20:12:00,49.8,25.9,24.12,NW,315,17.0,20.0,39,0.00,,,0.00,meteohub,2013-04-03 02:12:00,
2013-04-02 20:22:00,49.5,26.8,24.12,WNW,293,17.0,21.0,41,0.00,,,0.00,meteohub,2013-04-03 02:22:00,
2013-04-02 20:32:00,48.9,27.3,24.12,NW,315,18.0,21.0,43,0.00,,,0.00,meteohub,2013-04-03 02:32:00,
2013-04-02 20:37:00,48.9,27.3,24.12,West,270,15.0,19.0,43,0.00,,,0.00,meteohub,2013-04-03 02:37:00,
2013-04-02 20:42:00,49.1,27.5,24.12,NW,315,17.0,19.0,43,0.00,,,0.00,meteohub,2013-04-03 02:42:00,
2013-04-02 20:47:00,48.6,27.7,24.12,West,270,15.0,19.0,44,0.00,,,0.00,meteohub,2013-04-03 02:47:00,
2013-04-02 20:52:00,48.2,27.9,24.12,NW,315,18.0,19.0,45,0.00,,,0.00,meteohub,2013-04-03 02:52:00,
2013-04-02 20:57:00,48.4,27.5,24.12,NW,315,21.0,23.0,44,0.00,,,0.00,meteohub,2013-04-03 02:57:00,
2013-04-02 21:02:00,48.4,27.5,24.12,NW,315,22.0,23.0,44,0.00,,,0.00,meteohub,2013-04-03 03:02:00,
2013-04-02 21:07:00,48.4,27.5,24.12,NW,315,22.0,23.0,44,0.00,,,0.00,meteohub,2013-04-03 03:07:00,
2013-04-02 21:17:00,48.0,28.2,24.12,NW,315,18.0,23.0,46,0.00,,,0.00,meteohub,2013-04-03 03:17:00,
2013-04-02 21:22:00,48.0,28.2,24.12,NW,315,19.0,23.0,46,0.00,,,0.00,meteohub,2013-04-03 03:22:00,
2013-04-02 21:32:00,48.0,28.2,24.13,WNW,293,23.0,23.0,46,0.00,,,0.00,meteohub,2013-04-03 03:32:00,
2013-04-02 21:37:00,47.7,27.9,24.13,West,270,16.0,23.0,46,0.00,,,0.00,meteohub,2013-04-03 03:37:00,
2013-04-02 21:42:00,47.1,28.4,24.13,West,270,11.0,23.0,48,0.00,,,0.00,meteohub,2013-04-03 03:42:00,
2013-04-02 21:52:00,47.1,27.9,24.13,NW,315,20.0,23.0,47,0.00,,,0.00,meteohub,2013-04-03 03:52:00,
2013-04-02 21:57:00,47.3,28.0,24.12,NW,315,27.0,27.0,47,0.00,,,0.00,meteohub,2013-04-03 03:57:00,
2013-04-02 22:02:00,47.3,28.6,24.13,NW,315,24.0,27.0,48,0.00,,,0.00,meteohub,2013-04-03 04:02:00,
2013-04-02 22:07:00,47.3,28.6,24.13,North,-999,-999.0,27.0,48,0.00,,,0.00,meteohub,2013-04-03 04:07:00,
2013-04-02 22:12:00,46.9,28.2,24.13,NW,315,24.0,27.0,48,0.00,,,0.00,meteohub,2013-04-03 04:12:00,
2013-04-02 22:22:00,47.3,28.6,24.13,NW,315,28.0,28.0,48,0.00,,,0.00,meteohub,2013-04-03 04:22:00,
2013-04-02 22:32:00,46.2,29.1,24.14,NW,315,17.0,28.0,51,0.00,,,0.00,meteohub,2013-04-03 04:32:00,
2013-04-02 22:37:00,46.0,28.9,24.14,WNW,293,20.0,28.0,51,0.00,,,0.00,meteohub,2013-04-03 04:37:00,
2013-04-02 22:42:00,46.6,28.9,24.13,West,270,21.0,21.0,50,0.00,,,0.00,meteohub,2013-04-03 04:42:00,
2013-04-02 22:47:00,46.4,29.3,24.13,NW,315,19.0,21.0,51,0.00,,,0.00,meteohub,2013-04-03 04:47:00,
2013-04-02 22:52:00,46.4,29.3,24.13,NW,315,20.0,21.0,51,0.00,,,0.00,meteohub,2013-04-03 04:52:00,
2013-04-02 23:02:00,46.4,29.3,24.13,NW,315,20.0,23.0,51,0.00,,,0.00,meteohub,2013-04-03 05:02:00,
2013-04-02 23:12:00,46.4,28.8,24.13,NW,315,20.0,23.0,50,0.00,,,0.00,meteohub,2013-04-03 05:12:00,
2013-04-02 23:17:00,46.2,28.6,24.13,NW,315,18.0,20.0,50,0.00,,,0.00,meteohub,2013-04-03 05:17:00,
2013-04-02 23:27:00,45.9,29.3,24.13,West,270,20.0,20.0,52,0.00,,,0.00,meteohub,2013-04-03 05:27:00,
2013-04-02 23:32:00,46.0,29.5,24.14,West,270,18.0,20.0,52,0.00,,,0.00,meteohub,2013-04-03 05:32:00,
2013-04-02 23:37:00,46.0,28.9,24.13,NW,315,24.0,24.0,51,0.00,,,0.00,meteohub,2013-04-03 05:37:00,
2013-04-02 23:42:00,45.9,29.3,24.13,NW,315,20.0,24.0,52,0.00,,,0.00,meteohub,2013-04-03 05:42:00,
2013-04-02 23:47:00,45.9,29.3,24.13,West,270,16.0,24.0,52,0.00,,,0.00,meteohub,2013-04-03 05:47:00,
2013-04-02 23:52:00,45.5,29.3,24.13,West,270,17.0,24.0,53,0.00,,,0.00,meteohub,2013-04-03 05:52:00,
2013-04-02 23:57:00,45.1,29.5,24.13,West,270,17.0,22.0,54,0.00,,,0.00,meteohub,2013-04-03 05:57:00,